Location: Mascot Post Office (historical)
(40.2645°N, 99.5462°W)
Time: 02:11:04
(UTC+00:00)

BREEZE-M DEB (TANK) - Pass Details

Date: 14 July 2020
Orbit: 559 x 17160 km, 49.5° (Epoch: 14 August)

Event Time Altitude Azimuth Distance (km) Brightness Sun altitude
Rises 03:47:32 0° 297° (WNW) 2,872 7.8 -15.7°
Reaches altitude 10° 03:49:41 10° 287° (WNW) 1,846 6.4 -16.0°
Maximum altitude 03:52:52 36° 217° (SW) 989 4.0 -16.4°
Enters shadow 03:54:44 24° 169° (S) 1,477 4.5 -16.6°
